Date String (YYYY-MM-DD hh:mm:ss) UTC,Instrument flags,Ambient pressure (hPa),Sample flow (lpm),Bypass flow (lpm),Sample temperature (°C),Ambient temperature (°C),ASC tube jacket temperature (°C),LED temperature (°C),Box temperature (°C),Sample RH (%),Span deviation,Mass concentration (μg/m³),Mass concentration (μg/m³),Mass concentration (μg/m³)
DateTimeUTC,F1_M11,P_M11,Q1_M11,Q2_M11,T1_M11,T2_M11,T3_M11,T4_M11,T5_M11,U1_M11,ZSPAN_M11,X0_M11,X2_M11,X1_M11
2022-05-22 04:00:00,,0833.1,4.98,0.00,24.3,23.4,00.0,33.2,26.2,20.2,0000.0,0000.25,0000.03,0000.00
2022-05-22 04:01:00,,0833.1,5.01,0.00,24.3,23.4,00.0,33.2,26.3,20.5,0000.0,0000.25,0000.03,0000.01
2022-05-22 04:02:00,,0833.2,4.99,0.00,24.3,23.4,00.0,33.2,26.2,20.5,0000.0,0000.25,0000.03,0000.01
2022-05-22 04:03:00,,0833.1,5.02,0.00,24.3,23.4,00.0,33.2,26.2,21.2,0000.0,0000.25,0000.03,0000.00
2022-05-22 04:04:00,,0833.1,5.00,0.00,24.3,23.4,00.0,33.2,26.2,21.3,0000.0,0000.51,0000.03,0000.00
2022-05-22 04:05:00,,0833.1,5.00,0.00,24.3,23.4,00.0,33.2,26.2,21.0,0000.0,0000.58,0000.03,0000.00
2022-05-22 04:06:00,,0833.1,5.01,0.00,24.3,23.4,00.0,33.2,26.2,21.2,0000.0,0000.62,0000.04,0000.00
2022-05-22 04:07:00,,0833.2,5.00,0.00,24.3,23.4,00.0,33.2,26.2,21.6,0000.0,0000.63,0000.05,0000.00
2022-05-22 04:08:00,,0833.1,4.99,0.00,24.3,23.4,00.0,33.2,26.2,21.4,0000.0,0000.66,0000.06,0000.00
2022-05-22 04:09:00,,0833.1,5.00,0.00,24.3,23.4,00.0,33.2,26.2,21.1,0000.0,0000.57,0000.05,0000.00
2022-05-22 04:10:00,,0833.1,5.01,0.00,24.3,23.4,00.0,33.2,26.2,21.1,0000.0,0000.43,0000.04,0000.00
2022-05-22 04:11:00,,0833.2,5.00,0.00,24.3,23.4,00.0,33.2,26.3,20.6,0000.0,0000.43,0000.04,0000.00
2022-05-22 04:12:00,,0833.3,5.00,0.00,24.3,23.4,00.0,33.2,26.3,20.4,0000.0,0000.43,0000.04,0000.00
2022-05-22 04:13:00,,0833.3,4.99,0.00,24.3,23.4,00.0,33.2,26.3,21.1,0000.0,0000.43,0000.04,0000.00
2022-05-22 04:14:00,,0833.4,5.01,0.00,24.3,23.5,00.0,33.2,26.3,21.2,0000.0,0000.43,0000.04,0000.00
2022-05-22 04:15:00,,0833.5,5.00,0.00,24.3,23.5,00.0,33.2,26.3,21.6,0000.0,0000.13,0000.03,0000.00
2022-05-22 04:16:00,,0833.5,4.99,0.00,24.4,23.5,00.0,33.3,26.3,21.5,0000.0,0000.09,0000.03,0000.00
2022-05-22 04:17:00,,0833.4,5.00,0.00,24.4,23.5,00.0,33.3,26.3,21.0,0000.0,0000.05,0000.02,0000.00
2022-05-22 04:18:00,,0833.4,5.01,0.00,24.4,23.5,00.0,33.3,26.3,20.5,0000.0,0000.04,0000.02,0000.00
2022-05-22 04:19:00,,0833.5,5.00,0.00,24.4,23.5,00.0,33.3,26.3,20.1,0000.0,0000.01,0000.00,0000.00
2022-05-22 04:20:00,,0833.4,4.99,0.00,24.4,23.5,00.0,33.3,26.3,19.9,0000.0,0000.00,0000.00,0000.00
2022-05-22 04:21:00,,0833.3,5.01,0.00,24.4,23.5,00.0,33.3,26.3,19.4,0000.0,0000.00,0000.00,0000.00
2022-05-22 04:22:00,,0833.3,4.99,0.00,24.4,23.5,00.0,33.3,26.3,19.0,0000.0,0000.00,0000.00,0000.00
2022-05-22 04:23:00,,0833.3,5.01,0.00,24.4,23.5,00.0,33.3,26.3,18.6,0000.0,0000.00,0000.00,0000.00
2022-05-22 04:24:00,,0833.4,4.99,0.00,24.4,23.5,00.0,33.3,26.4,18.6,0000.0,0000.00,0000.00,0000.00
2022-05-22 04:25:00,,0833.4,5.02,0.00,24.4,23.5,00.0,33.3,26.3,18.6,0000.0,0000.01,0000.00,0000.00
2022-05-22 04:26:00,,0833.4,5.01,0.00,24.4,23.5,00.0,33.3,26.3,18.5,0000.0,0000.02,0000.01,0000.00
2022-05-22 04:27:00,,0833.4,4.99,0.00,24.4,23.5,00.0,33.3,26.3,19.2,0000.0,0000.06,0000.03,0000.00
2022-05-22 04:28:00,,0833.4,5.01,0.00,24.4,23.5,00.0,33.3,26.3,19.5,0000.0,0000.07,0000.03,0000.00
2022-05-22 04:29:00,,0833.3,5.00,0.00,24.3,23.5,00.0,33.3,26.2,19.9,0000.0,0000.09,0000.05,0000.00
2022-05-22 04:30:00,,0833.2,4.99,0.00,24.3,23.4,00.0,33.3,26.2,20.1,0000.0,0000.14,0000.07,0000.00
2022-05-22 04:31:00,,0833.2,5.01,0.00,24.3,23.4,00.0,33.3,26.2,20.0,0000.0,0000.14,0000.07,0000.00
2022-05-22 04:32:00,,0833.2,5.00,0.00,24.3,23.4,00.0,33.3,26.3,20.0,0000.0,0000.18,0000.08,0000.00
2022-05-22 04:33:00,,0833.3,5.01,0.00,24.3,23.4,00.0,33.3,26.3,20.2,0000.0,0000.18,0000.08,0000.00
2022-05-22 04:34:00,,0833.3,5.00,0.00,24.3,23.4,00.0,33.3,26.2,20.1,0000.0,0000.18,0000.08,0000.00
2022-05-22 04:35:00,,0833.4,4.99,0.00,24.3,23.4,00.0,33.3,26.2,20.5,0000.0,0000.18,0000.08,0000.00
2022-05-22 04:36:00,,0833.5,5.01,0.00,24.3,23.4,00.0,33.3,26.2,20.4,0000.0,0000.18,0000.08,0000.00
2022-05-22 04:37:00,,0833.4,5.01,0.00,24.3,23.4,00.0,33.3,26.2,20.3,0000.0,0000.16,0000.07,0000.00
2022-05-22 04:38:00,,0833.4,4.99,0.00,24.3,23.3,00.0,33.3,26.2,20.1,0000.0,0000.12,0000.05,0000.00
2022-05-22 04:39:00,,0833.4,5.00,0.00,24.3,23.3,00.0,33.3,26.2,19.6,0000.0,0000.12,0000.05,0000.00
2022-05-22 04:40:00,,0833.4,5.00,0.00,24.3,23.3,00.0,33.3,26.2,19.3,0000.0,0000.09,0000.03,0000.00
2022-05-22 04:41:00,,0833.4,5.01,0.00,24.3,23.3,00.0,33.3,26.2,18.9,0000.0,0000.05,0000.01,0000.00
2022-05-22 04:42:00,,0833.4,5.01,0.00,24.3,23.4,00.0,33.3,26.2,19.2,0000.0,0000.04,0000.01,0000.00
2022-05-22 04:43:00,,0833.4,5.00,0.00,24.3,23.4,00.0,33.3,26.2,19.5,0000.0,0000.00,0000.00,0000.00
2022-05-22 04:44:00,,0833.4,5.01,0.00,24.3,23.4,00.0,33.3,26.2,19.6,0000.0,0000.00,0000.00,0000.00
2022-05-22 04:45:00,,0833.4,4.99,0.00,24.3,23.4,00.0,33.3,26.2,19.8,0000.0,0000.00,0000.00,0000.00
2022-05-22 04:46:00,,0833.4,5.01,0.00,24.3,23.4,00.0,33.3,26.1,20.0,0000.0,0000.00,0000.00,0000.00
2022-05-22 04:47:00,,0833.4,5.00,0.00,24.2,23.4,00.0,33.3,26.1,19.9,0000.0,0000.00,0000.00,0000.00
2022-05-22 04:48:00,,0833.4,5.00,0.00,24.2,23.3,00.0,33.2,26.1,19.8,0000.0,0000.03,0000.01,0000.00
2022-05-22 04:49:00,,0833.4,4.99,0.00,24.2,23.3,00.0,33.2,26.1,19.7,0000.0,0000.04,0000.02,0000.00
2022-05-22 04:50:00,,0833.5,5.00,0.00,24.2,23.3,00.0,33.2,26.1,19.9,0000.0,0000.04,0000.02,0000.00
2022-05-22 04:51:00,,0833.4,5.00,0.00,24.2,23.3,00.0,33.2,26.1,20.0,0000.0,0000.04,0000.02,0000.00
2022-05-22 04:52:00,,0833.5,5.01,0.00,24.2,23.3,00.0,33.2,26.1,19.8,0000.0,0000.04,0000.02,0000.00
2022-05-22 04:53:00,,0833.4,5.00,0.00,24.2,23.3,00.0,33.2,26.0,19.9,0000.0,0000.04,0000.02,0000.00
2022-05-22 04:54:00,,0833.4,4.99,0.00,24.2,23.2,00.0,33.2,26.0,19.9,0000.0,0000.12,0000.03,0000.00
2022-05-22 04:55:00,,0833.4,5.01,0.00,24.2,23.2,00.0,33.2,26.0,19.8,0000.0,0000.18,0000.05,0000.01
2022-05-22 04:56:00,,0833.4,5.00,0.00,24.1,23.2,00.0,33.2,26.0,19.4,0000.0,0000.19,0000.05,0000.01
2022-05-22 04:57:00,,0833.3,5.01,0.00,24.1,23.2,00.0,33.2,25.9,18.9,0000.0,0000.19,0000.05,0000.01
2022-05-22 04:58:00,,0833.3,4.99,0.00,24.1,23.2,00.0,33.2,25.9,19.1,0000.0,0000.19,0000.05,0000.01
2022-05-22 04:59:00,,0833.2,5.01,0.00,24.1,23.1,00.0,33.2,25.9,18.9,0000.0,0000.16,0000.04,0000.01
